Lynchburg, VA

2:11 PM EST on December 08, 2019 (GMT -0500)
Lynchburg Regional-Glenn

Weather History for KLYH - November, 2019

Change the Weather History Date:

Monday, November 18, 2019

  Actual Average Record
Temperature  
Mean Temperature 45 °F 46 °F  
Max Temperature 50 °F 58 °F 78 °F (1938)
Min Temperature 39 °F 34 °F 18 °F (1997)
Degree Days  
Heating Degree Days 20 19  
Month to date heating degree days 404 292  
Since 1 July heating degree days 579 639  
Cooling Degree Days 0 0  
Month to date cooling degree days 0 0  
Year to date cooling degree days 1575 1031  
Moisture  
Dew Point 39 °F    
Average Humidity 83    
Maximum Humidity 100    
Minimum Humidity 66    
Precipitation  
Precipitation 0.19 in 0.11 in 1.20 in (1902)
Month to date precipitation 0.38 2.05  
Year to date precipitation 34.86 36.97  
Snow  
Snow 0.00 in - - ()
Month to date snowfall T  
Since 1 July snowfall T  
Since 1 September snowfall T  
Snow Depth 0.00 in    
Sea Level Pressure  
Sea Level Pressure 29.81 in    
Wind  
Wind Speed 5 mph (West)    
Max Wind Speed 13 mph    
Max Gust Speed 17 mph    
Visibility 6 miles    
Events Fog , Rain    
T = Trace of Precipitation, MM = Missing Value Source: NWS Daily Summary

Daily Weather History Graph

Daily Weather History Graph

Search for Another Location

Airport or City:

Astronomy

Nov. 18, 2019 Rise Set
Actual Time 6:58 AM EST 5:04 PM EST
Civil Twilight 6:30 AM EST 5:32 PM EST
Nautical Twilight 5:59 AM EST 6:04 PM EST
Astronomical Twilight 5:28 AM EST 6:35 PM EST
Moon 10:47 PM EST (11/18) 12:28 PM EST (11/18)
Length of Visible Light 11h 01m
Length of Day
10h 05m
Waning Gibbous, 63% of the Moon is Illuminated
Nov 18
Waning Gibbous
Nov 19
Last Quarter
Nov 26
New
Dec 4
First Quarter
Dec 12
Full

Hourly Weather History & Observations

Time (EST) Temp. Windchill Dew Point Humidity Pressure Visibility Wind Dir Wind Speed Gust Speed Precip Events Conditions
12:08 AM 39.9 °F 36.7 °F 36.0 °F 86% 29.96 in 10.0 mi North 4.6 mph - N/A   Overcast
12:27 AM 39.9 °F 36.7 °F 36.0 °F 86% 29.95 in 10.0 mi NNE 4.6 mph - N/A   Overcast
12:54 AM 39.0 °F 34.8 °F 36.0 °F 89% 29.94 in 10.0 mi Variable 5.8 mph - N/A   Overcast
1:05 AM 39.0 °F 36.8 °F 36.0 °F 89% 29.93 in 10.0 mi North 3.5 mph - N/A   Overcast
1:54 AM 39.0 °F 33.4 °F 36.0 °F 89% 29.91 in 10.0 mi NE 8.1 mph - N/A   Overcast
2:36 AM 39.0 °F 34.8 °F 36.0 °F 89% 29.90 in 10.0 mi NNE 5.8 mph - N/A   Overcast
2:54 AM 39.9 °F 36.7 °F 36.0 °F 86% 29.91 in 10.0 mi North 4.6 mph - N/A   Overcast
3:54 AM 39.0 °F 33.4 °F 36.0 °F 89% 29.89 in 10.0 mi NE 8.1 mph - N/A   Overcast
4:54 AM 39.0 °F 35.7 °F 37.9 °F 96% 29.89 in 3.0 mi NNE 4.6 mph - N/A   Overcast
5:15 AM 39.0 °F 35.7 °F 37.9 °F 96% 29.88 in 6.0 mi NNE 4.6 mph - N/A   Overcast
5:54 AM 39.0 °F 34.0 °F 37.9 °F 96% 29.89 in 5.0 mi NNE 6.9 mph - N/A   Overcast
6:07 AM 39.0 °F 34.8 °F 37.0 °F 93% 29.88 in 9.0 mi NNE 5.8 mph - N/A   Overcast
6:54 AM 39.0 °F 36.8 °F 37.0 °F 93% 29.89 in 10.0 mi North 3.5 mph - N/A   Overcast
7:54 AM 39.9 °F - 37.0 °F 89% 29.89 in 10.0 mi Calm Calm - N/A   Overcast
8:54 AM 41.0 °F 39.0 °F 37.0 °F 86% 29.89 in 10.0 mi NNE 3.5 mph - N/A   Overcast
9:26 AM 42.1 °F 39.2 °F 37.0 °F 82% 29.86 in 10.0 mi NE 4.6 mph - N/A   Mostly Cloudy
9:54 AM 43.0 °F 40.3 °F 37.0 °F 80% 29.87 in 10.0 mi NNW 4.6 mph - N/A   Overcast
10:09 AM 44.1 °F - 37.0 °F 76% 29.86 in 10.0 mi Calm Calm - N/A   Overcast
10:42 AM 45.0 °F 42.6 °F 37.9 °F 76% 29.84 in 10.0 mi NE 4.6 mph - N/A   Scattered Clouds
10:54 AM 46.9 °F - 37.9 °F 71% 29.83 in 10.0 mi ENE 5.8 mph - N/A   Partly Cloudy
11:54 AM 50.0 °F - 39.0 °F 66% 29.80 in 10.0 mi Variable 4.6 mph - N/A   Overcast
12:12 PM 48.9 °F - 39.0 °F 69% 29.78 in 10.0 mi West 4.6 mph - N/A   Overcast
12:40 PM 50.0 °F - 39.0 °F 66% 29.76 in 10.0 mi Variable 3.5 mph - N/A   Overcast
12:47 PM 50.0 °F - 39.0 °F 66% 29.76 in 10.0 mi Variable 4.6 mph - N/A   Overcast
12:54 PM 48.9 °F - 39.0 °F 69% 29.76 in 10.0 mi SSW 8.1 mph - N/A   Overcast
1:54 PM 48.0 °F - 39.9 °F 74% 29.76 in 10.0 mi Variable 4.6 mph - 0.00 in Rain Light Rain
2:54 PM 46.0 °F 41.9 °F 42.1 °F 86% 29.76 in 10.0 mi SW 8.1 mph - 0.01 in Rain Light Rain
3:08 PM 45.0 °F 41.2 °F 41.0 °F 86% 29.76 in 10.0 mi SSW 6.9 mph - 0.00 in Rain Light Rain
3:15 PM 45.0 °F 42.6 °F 41.0 °F 86% 29.76 in 10.0 mi SW 4.6 mph - 0.00 in Rain Light Rain
3:54 PM 44.1 °F 41.5 °F 42.1 °F 93% 29.76 in 4.0 mi SW 4.6 mph - 0.03 in Rain Light Rain
4:02 PM 44.1 °F 42.5 °F 42.1 °F 93% 29.75 in 4.0 mi Variable 3.5 mph - 0.02 in Rain Light Rain
4:54 PM 44.1 °F 42.5 °F 43.0 °F 96% 29.75 in 4.0 mi SSW 3.5 mph - 0.10 in Rain Light Rain
5:54 PM 43.0 °F - 43.0 °F 100% 29.74 in 6.0 mi Calm Calm - 0.04 in Rain Light Rain
6:32 PM 42.1 °F - 42.1 °F 100% 29.72 in 1.5 mi Calm Calm - 0.01 in   Overcast
6:36 PM 41.0 °F - 41.0 °F 100% 29.73 in 0.8 mi Calm Calm - 0.01 in   Overcast
6:52 PM 39.2 °F - 39.2 °F 100% 29.74 in 0.2 mi Calm Calm - N/A Fog Fog
6:53 PM 39.9 °F - 39.9 °F 100% 29.75 in 1.0 mi Calm Calm - 0.01 in   Overcast
6:57 PM 41.0 °F - 41.0 °F 100% 29.74 in 0.2 mi Calm Calm - N/A Fog Fog
7:04 PM 41.0 °F 39.0 °F 41.0 °F 100% 29.74 in 1.0 mi WSW 3.5 mph - N/A   Mist
7:21 PM 41.0 °F 38.0 °F 41.0 °F 100% 29.75 in 0.2 mi SSW 4.6 mph - N/A Fog Fog
7:54 PM 41.0 °F 39.0 °F 41.0 °F 100% 29.76 in 0.2 mi SSW 3.5 mph - N/A Fog Fog
8:21 PM 41.0 °F 39.0 °F 41.0 °F 100% 29.75 in 0.5 mi SW 3.5 mph - N/A Fog Fog
8:32 PM 41.0 °F 37.1 °F 41.0 °F 100% 29.76 in 0.2 mi SSW 5.8 mph - N/A Fog Fog
8:54 PM 41.0 °F 38.0 °F 41.0 °F 100% 29.77 in 0.2 mi South 4.6 mph - N/A Fog Fog
9:12 PM 41.0 °F 35.8 °F 41.0 °F 100% 29.76 in 0.5 mi SSW 8.1 mph - N/A Fog Fog
9:25 PM 41.0 °F 35.2 °F 41.0 °F 100% 29.76 in 0.5 mi SSW 9.2 mph - N/A Fog Fog
9:54 PM 41.0 °F 36.4 °F 41.0 °F 100% 29.78 in 0.2 mi SSW 6.9 mph - N/A Fog Fog
10:54 PM 41.0 °F 35.2 °F 41.0 °F 100% 29.78 in 1.0 mi SW 9.2 mph - N/A   Mist
11:25 PM 41.0 °F 36.4 °F 41.0 °F 100% 29.79 in 2.0 mi SW 6.9 mph - N/A   Overcast
11:43 PM 41.0 °F - 41.0 °F 100% 29.78 in 1.5 mi Calm Calm - N/A   Overcast
11:54 PM 41.0 °F 38.0 °F 41.0 °F 100% 29.78 in 1.5 mi SSW 4.6 mph - N/A   Overcast